DW7098 Weather Reports


Display with metric or nautical units.
time (UTC)temp
F
wind
direction
speed
MPH
gust
MPH
rain 1hr
in
rain 24hr
in
rain mn
in
humidity
%
barometer
mb
20260906223051 68 231 3.0 11.0 0.00 0.00 0.00
20260906210115 69 132 3.0 8.0 0.00 0.00 0.00
20260906203048 67 275 2.0 9.0 0.00 0.00 0.00
20260906200111 66 252 2.0 6.0 0.00 0.00 0.00
20260906193049 66 125 2.0 8.0 0.00 0.00 0.00
20260906190108 65 227 4.0 7.0 0.00 0.00 0.00
20260906183044 64 253 0.0 4.0 0.00 0.00 0.00
20260906180108 60 237 1.0 3.0 0.00 0.00 0.00
20260906173043 58 80 1.0 2.0 0.00 0.00 0.00
20260906170116 57 141 0.0 1.0 0.00 0.00 0.00
20260906163024 56 112 0.0 1.0 0.00 0.00 0.00
20260906160122 55 74 0.0 2.0 0.00 0.00 0.00
20260906153104 53 65 0.0 1.0 0.00 0.00 0.00
20260906150106 53 94 0.0 2.0 0.00 0.00 0.00
20260906143030 53 70 0.0 0.0 0.00 0.00 0.00
20260906140104 52 70 0.0 0.0 0.00 0.00 0.00
20260906133048 52 70 0.0 1.0 0.00 0.00 0.00
20260906123053 52 70 0.0 0.0 0.00 0.00 0.00
20260906120120 52 61 1.0 3.0 0.00 0.00 0.00
20260906113038 52 65 0.0 0.0 0.00 0.00 0.00
20260906103032 53 65 0.0 1.0 0.00 0.00 0.00
20260906100103 53 65 0.0 0.0 0.00 0.00 0.00
20260906093050 53 65 0.0 0.0 0.00 0.00 0.00
20260906090121 54 65 0.0 0.0 0.00 0.00 0.00
20260906073028 55 66 0.0 2.0 0.00 0.00 0.00
20260906070120 56 101 0.0 0.0 0.00 0.00 0.00
20260906053056 57 93 0.0 0.0 0.00 0.00 0.00
20260906050112 58 93 0.0 0.0 0.00 0.00 0.00
20260906030101 62 207 0.0 0.0 0.00 0.00 0.00
20260906023049 63 207 0.0 0.0 0.00 0.00 0.00
20260906013052 66 217 0.0 4.0 0.00 0.00 0.00
20260906010115 66 185 1.0 5.0 0.00 0.00 0.00
20260906003045 67 85 1.0 5.0 0.00 0.00 0.00
20260906000124 69 60 1.0 6.0 0.00 0.00 0.00
20260905233101 72 61 1.0 4.0 0.00 0.00 0.00
20260905230113 73 279 1.0 4.0 0.00 0.00 0.00